COSMOS 397 DEB, 5013

Orbit data source: Space-Track

COSMOS 397 DEB, 5013 is space debris in LEO originally from a launch on Thu, 25 Feb 1971 UTC launched from the Tyuratam Missile And Space Complex (TTMTR). Debris objects in space refer to the collection of defunct objects orbiting the Earth. Examples of debris include non-operational satellites, rocket bodies, and fragments generated from explosions, collisions, or faulty payload assembly.

Loading next visibility...
Identifier
5013, 1971-015G
Orbit
LEO
Last TLE update
10 hours ago
Origin
Manufacturer
Unknown
Mission
Spacecraft
Bus & Motor
Unknown
Mass
Unknown
Launch date (UTC)
1971-02-25 (54 years ago)
Launch vehicle
Unknown
Launch site
Tyuratam Missile And Space Complex (TTMTR)
Object type
Payload
Rocket body
Debris
Shape & HBR
Unknown
Radar Cross Section
Small (<0.1 m²)

Expand to show TLE details & history

TLE from 10 hours ago
0 COSMOS 397 DEB
1 05013U 71015G   25150.57806681  .00001153  00000-0  44295-3 0  9994
2 05013  65.8105 211.2287 0860194 269.1416  81.1088 13.16768825554137
Epoch: 2025-05-30T13:52Z
TLE epoch observation values (Epoch: 2025-05-30T13:52:24.972Z)
Latitude
-0.0001°
Longitude
114.79381°
Altitude
1,153.86 km
Speed
7.298 km/s
True Right ascension
14h 04m 54s
True Declination
0° 00' 00"
Sunlit
Object was in full shadow at epoch
Visualization orbit readout
Latitude
13.97622°
Longitude
-72.54246°
Altitude
1,305.745 km
Speed
7.154 km/s
Apparent Right ascension
00h 00m 42s
Apparent Declination
-11° 44' 46"
Sunlit
Object is in daylight
Visualization observer readout
Local Sidereal Time
09:29:41
Azimuth
299.6° NW
Elevation
-46.413°
Doppler factor
1
Orbital elements
Apogee altitude
1,847.124 km
Perigee altitude
544.142 km
Semi-major axis
7,573.77 km
Eccentricity
0.08602
Inclination
65.8105°
RAAN
211.2287°
Arg. of periapsis
269.1416°
True anomaly
Unknown
Mean anomaly
81.1088°
Eccentric anomaly
Unknown
Mean motion
3.29287 °/min
Orbital period
109.33 mins
BSTAR
0.00044295
Loading maneuver chart data...
Loading SW <> Apogee altitude chart data...

COSMOS 397 DEB Visibility forecast

Observer location: undefined°, undefined°

Span
Click to sort rows by Start time (UTC) header in descending order
Start Az.
Max El. time (UTC)
Max El. Az.
Max El.
End time (UTC)
End Az.
16 mins2025-05-31 04:33:10.966Z166.216° S2025-05-31 04:40:10.966Z103.367° ESE32.378°2025-05-31 04:49:10.966Z42.675° NE
18 mins2025-05-31 06:25:10.966Z231.232° WSW2025-05-31 06:32:10.966Z296.733° NW40.995°2025-05-31 06:43:10.966Z26.609° NE
14 mins2025-05-31 08:22:10.966Z290.734° WNW2025-05-31 08:28:10.966Z331.817° NNW21.929°2025-05-31 08:36:10.966Z20.2° NNE
9 mins2025-05-31 10:22:10.966Z337.418° NNW2025-05-31 10:26:10.966Z0.901° NNE15.281°2025-05-31 10:31:10.966Z29.883° NE
14 mins2025-05-31 12:17:10.966Z345.133° N2025-05-31 12:24:10.966Z30.706° NE23.086°2025-05-31 12:31:10.966Z78.498° E
17 mins2025-05-31 14:10:10.966Z334.158° NNW2025-05-31 14:19:10.966Z45.893° ENE42.556°2025-05-31 14:27:10.966Z134.996° SE
14 mins2025-05-31 16:04:10.966Z311.603° NW2025-05-31 16:11:10.966Z262.959° W29.172°2025-05-31 16:18:10.966Z200.505° SSW
|